Location: Eekwerd
(53.3234°N, 6.7984°E)
Time: 20:03:35
(UTC+00:00)

Cosmos 2082 Rocket - Pass Details

Date: 15 May 2026
Orbit: 832 x 852 km, 71.0° (Epoch: 8 June)

Event Time Altitude Azimuth Distance (km) Brightness Sun altitude
Rises 20:38:58 0° 223° (SW) 3,412 5.3 -8.9°
Reaches altitude 10° 20:41:27 10° 227° (SW) 2,480 4.6 -9.1°
Maximum altitude 20:47:05 60° 307° (NW) 974 2.9 -9.7°
Drops below altitude 10° 20:52:45 10° 28° (NNE) 2,487 5.0 -10.2°
Sets 20:55:15 0° 32° (NNE) 3,423 5.7 -10.4°
